Temperature
17 15 15 14 13 13 13 13 13 12 12 12 11 11 11 11 11 11 11 11 11 11 11 11 11 11 11 12 12 12 12 12 12 12 12 12 12 12 13 13 13 14 14
17 16 15 14 13 13 13 13 13 12 12 12 11 11 11 11 11 10 10 11 11 11 11 11 11 11 11 11 11 11 12 12 12 12 12 11 11 11 12 12 13 13 13
17 16 15 14 14 13 13 13 12 12 12 11 11 11 11 11 10 10 10 10 10 10 10 10 11 11 11 11 11 11 12 12 12 12 11 11 10 10 11 11 11 12 12
17 16 15 14 14 13 13 13 12 12 12 11 11 11 10 10 10 10 10 10 10 10 10 10 10 10 10 11 11 11 12 12 12 11 10 10 10 10 10 10 11 11 11
17 16 15 15 14 13 13 12 12 12 12 11 11 11 10 10 10 10 10 10 10 10 10 10 10 10 10 10 11 11 12 12 11 10 10 10 9 9 10 10 10 11 11
17 16 16 15 14 13 13 12 12 11 11 11 11 10 10 10 10 10 10 10 10 10 10 10 10 10 10 11 11 11 11 11 10 10 10 10 9 9 9 10 10 10 10
17 16 16 15 14 13 12 12 11 11 11 11 11 10 10 10 10 10 10 10 10 10 10 10 10 10 11 11 11 11 11 11 11 10 10 10 10 9 9 9 10 10 10
17 16 15 15 13 13 12 12 11 11 11 10 10 10 10 10 10 10 10 10 10 10 10 10 10 11 10 11 11 11 11 11 10 10 10 10 10 10 9 9 9 10 10
16 16 15 14 13 12 12 11 11 11 11 10 10 10 10 10 10 10 10 10 10 10 10 10 10 10 10 10 10 10 10 10 10 10 10 10 10 10 9 9 9 9 9
16 16 15 14 13 12 12 11 11 11 10 10 10 10 9 9 9 9 9 9 10 10 10 10 10 10 10 10 10 10 10 10 9 9 10 10 10 10 9 9 9 9 9
16 15 15 14 13 12 12 11 11 11 10 10 10 9 9 9 9 9 9 9 9 9 9 9 9 9 9 9 9 9 9 9 9 9 9 10 10 10 9 9 8 8 8
17 16 15 14 13 12 11 11 11 10 10 10 10 9 9 9 9 8 9 9 9 9 9 9 9 9 9 8 8 9 8 8 8 8 9 9 9 9 9 9 8 8 8
17 16 15 14 13 12 11 11 11 10 10 10 10 9 9 9 9 9 8 8 8 8 8 8 8 8 8 8 8 8 8 8 8 8 8 9 9 9 9 9 8 8 8
17 16 15 14 13 12 11 11 11 11 10 10 10 9 9 9 9 8 8 8 8 8 8 8 8 8 8 7 7 7 7 7 7 8 8 8 8 9 9 8 8 8 8
16 16 15 14 13 12 11 11 11 11 10 10 10 9 9 9 9 9 8 8 8 8 8 8 8 8 8 7 7 7 7 7 7 7 7 8 8 8 8 8 8 8 8
16 16 15 14 13 12 12 11 11 11 10 10 10 10 9 9 9 9 9 8 8 8 8 8 8 8 7 7 7 7 7 7 7 7 7 8 8 8 8 8 8 8 8
16 16 15 14 13 13 12 11 11 11 11 10 10 10 9 9 9 9 9 9 8 8 8 8 8 8 7 7 7 7 7 7 7 7 7 8 8 8 8 8 8 8 8
16 16 15 14 13 13 12 12 11 11 11 10 10 10 10 9 9 9 9 9 8 8 8 8 8 7 7 7 7 7 7 7 8 7 7 7 8 8 7 8 7 7 7
16 16 15 14 14 13 12 12 11 11 11 10 10 10 10 9 9 9 9 9 8 8 8 8 8 7 7 7 7 8 7 8 8 8 7 7 7 7 7 7 7 7 7
16 16 15 15 14 13 12 12 11 11 11 10 10 10 10 9 9 9 9 9 8 8 8 8 8 8 7 7 7 7 7 8 8 7 7 7 7 7 7 7 6 6 6
16 16 15 14 14 13 12 11 11 11 11 10 10 10 10 9 9 9 9 9 9 8 8 8 7 7 7 7 7 7 7 7 7 7 7 6 6 6 6 6 6 6 6
16 16 15 14 14 13 12 12 11 11 11 10 10 10 10 10 9 9 9 9 9 8 8 8 7 7 7 6 6 6 6 7 6 6 6 6 6 6 6 6 5 6 6
16 15 15 14 14 13 12 12 11 11 10 10 10 10 10 10 9 9 9 9 9 8 8 8 7 7 6 6 6 5 5 6 5 5 5 5 5 5 5 5 5 5 5
16 15 15 14 14 13 12 12 11 11 10 10 10 10 10 9 9 9 9 9 8 8 8 8 7 7 6 6 5 5 4 4 3 4 4 4 4 4 5 5 5 5 5
15 15 14 14 13 13 12 11 11 10 10 10 10 10 10 9 9 9 9 9 8 8 8 7 7 7 6 6 5 5 4 3 3 2 3 3 3 4 4 4 5 5 5
15 14 14 14 13 13 12 11 11 10 10 10 10 10 10 9 9 9 9 9 8 8 7 7 7 6 6 6 5 4 4 3 2 2 2 2 2 3 3 4 4 4 4
Wind_Speed
11 17 19 17 16 15 14 14 13 13 13 13 13 13 13 13 13 14 14 14 14 15 16 16 16 17 17 17 17 17 18 19 19 19 19 19 19 19 19 18 16 17 19
16 19 20 18 17 15 14 14 14 13 13 13 12 12 13 13 13 13 13 14 14 14 15 15 15 16 16 16 16 17 17 17 17 17 16 17 18 18 18 18 18 16 18
18 19 20 18 17 15 15 15 14 13 13 13 12 12 12 12 13 13 13 13 14 14 14 14 14 15 16 16 15 16 16 16 15 14 13 13 15 17 17 17 17 17 16
19 19 19 19 17 16 15 16 14 14 13 13 12 12 12 12 12 12 12 12 13 13 13 13 13 14 14 14 14 15 15 14 14 11 12 13 13 15 15 16 15 15 15
19 18 19 19 17 16 16 15 14 14 13 13 12 12 12 11 11 11 12 12 12 12 12 12 12 13 13 13 13 13 13 12 11 11 11 11 12 13 14 14 14 13 14
18 18 20 19 18 17 16 15 15 14 13 12 12 12 11 11 11 11 11 11 11 11 11 11 11 12 12 12 12 12 12 10 8 9 9 10 10 11 11 11 11 11 11
17 18 20 19 18 17 16 16 15 14 14 12 12 12 11 11 10 10 10 10 10 10 10 11 10 10 10 11 11 10 10 9 8 8 7 8 10 10 10 10 10 9 9
16 17 19 20 18 18 17 16 15 14 14 13 12 12 11 11 10 9 9 9 9 9 9 9 9 9 9 9 9 9 9 7 6 6 6 7 9 9 8 8 8 8 8
16 16 17 19 18 18 17 17 15 14 14 13 12 12 11 10 9 8 8 7 7 7 7 7 7 7 7 7 7 7 6 5 5 6 5 5 8 9 8 7 7 7 7
15 15 16 17 17 17 17 17 16 15 14 13 12 12 11 10 9 8 7 6 6 5 5 5 5 5 5 5 5 5 4 3 4 4 4 5 8 9 9 9 8 8 8
15 15 15 16 16 16 16 17 17 15 15 14 13 13 11 8 7 7 5 5 4 3 3 2 3 3 2 2 2 3 3 4 4 4 4 6 8 10 10 10 10 10 9
18 17 15 16 16 16 14 15 14 14 14 13 12 12 9 7 5 5 7 5 3 3 2 1 1 1 2 1 0 3 3 4 4 4 4 6 9 10 11 11 11 12 11
18 17 16 15 16 16 13 13 12 11 12 12 11 11 9 7 6 5 5 5 5 4 3 2 3 2 3 3 4 4 5 5 5 5 5 5 9 11 12 12 13 13 13
16 18 17 17 15 16 15 13 12 11 11 10 11 12 10 7 7 6 5 4 4 4 3 3 3 3 4 5 5 6 6 6 6 7 6 6 10 11 12 13 14 14 14
16 18 18 17 16 16 14 12 12 12 12 12 12 12 11 9 7 6 5 5 5 4 5 5 5 5 5 6 6 7 8 8 9 9 8 7 9 11 12 13 14 14 14
16 17 18 19 18 17 14 12 12 13 13 12 12 13 13 10 8 7 6 6 5 5 5 5 6 5 6 6 7 8 9 10 9 10 10 9 8 9 10 11 12 12 12
16 17 18 19 18 17 15 14 13 13 13 12 12 13 12 11 9 8 6 6 6 6 6 5 6 6 6 7 8 9 9 10 10 11 10 9 8 6 6 8 8 9 10
14 16 17 15 18 18 15 15 13 13 13 12 12 11 12 12 10 8 7 6 5 5 5 5 5 5 6 6 7 7 8 9 11 10 10 8 7 6 4 3 5 7 8
14 16 17 18 19 18 16 14 13 12 11 11 10 10 11 11 10 8 7 5 5 5 5 4 5 5 6 6 7 8 8 8 9 9 8 6 5 4 4 2 3 5 7
13 15 17 18 18 17 14 11 9 9 8 9 9 9 10 10 10 8 6 6 5 4 4 4 5 4 5 6 7 8 8 8 7 6 5 4 3 4 4 5 6 5 7
12 15 17 17 18 15 12 11 10 9 8 7 7 9 10 10 9 8 6 6 5 5 5 4 4 5 4 4 6 7 7 6 5 4 4 4 4 5 5 6 7 9 9
13 15 16 17 17 17 14 12 9 9 7 6 6 8 9 9 9 7 7 5 5 4 4 4 4 4 4 3 4 6 5 4 1 4 5 6 6 6 7 8 10 11 12
13 15 14 17 17 17 15 11 8 6 5 5 7 6 7 8 8 7 6 5 5 4 4 4 4 5 4 3 3 4 4 4 6 5 5 6 7 7 8 10 11 12 13
12 12 14 15 16 16 16 14 15 11 10 9 8 7 7 8 8 7 7 6 5 4 4 4 3 4 4 4 3 4 6 5 5 6 5 6 8 9 11 10 12 13 13
11 11 12 14 15 16 16 16 16 13 10 8 8 9 8 7 7 7 7 6 5 4 4 4 4 4 4 5 5 4 5 6 8 7 9 9 9 8 9 10 11 12 12
11 11 12 14 14 15 15 15 15 15 12 12 11 10 8 6 6 7 7 6 6 5 5 4 4 5 5 5 5 5 6 6 6 7 9 12 11 10 11 10 10 10 11
Wind_Direction
164 161 160 157 154 152 145 137 129 124 118 114 105 96 91 88 83 79 73 70 68 66 65 66 65 63 63 62 61 59 58 56 54 52 52 54 55 55 52 47 46 50 47
158 160 160 158 156 156 150 140 132 127 122 117 109 101 92 88 84 80 76 72 70 68 66 65 65 64 63 63 62 61 60 58 55 52 51 54 54 53 52 50 48 49 47
155 158 160 160 158 156 149 141 134 128 124 118 112 106 98 91 86 82 78 74 71 69 68 66 65 65 64 63 63 61 60 57 54 52 53 52 54 52 51 49 48 47 46
157 159 161 159 159 156 149 143 137 130 127 120 114 109 102 95 89 85 82 78 75 73 71 69 67 66 65 64 63 61 58 54 50 49 53 48 51 51 48 46 46 44 43
158 161 157 160 159 154 149 145 141 136 130 124 118 112 106 100 93 88 84 81 79 77 74 71 68 67 65 64 64 62 57 50 49 53 52 46 49 49 47 44 42 41 40
160 161 158 164 161 155 151 148 146 141 135 129 125 118 112 106 99 94 89 86 83 79 76 73 70 66 65 64 63 61 55 45 46 52 47 39 40 41 42 40 37 37 36
161 161 160 166 163 159 155 152 150 146 140 137 133 127 119 112 106 102 96 91 87 82 77 74 72 68 65 63 60 58 52 41 44 48 40 34 28 24 31 31 27 26 27
162 162 161 167 166 164 161 156 154 151 148 144 142 136 125 118 115 110 104 96 90 84 80 75 72 69 64 61 58 55 48 29 41 41 35 30 15 8 16 17 14 13 13
166 166 166 169 170 168 165 161 160 158 154 151 147 141 132 127 123 117 111 104 96 89 83 77 72 68 63 57 53 48 40 13 21 32 21 17 359 350 355 356 355 351 349
172 173 172 174 174 172 169 166 165 163 160 157 152 144 138 136 134 129 128 118 111 103 93 82 70 66 59 50 43 35 11 310 16 11 7 6 344 338 338 338 337 332 328
181 181 179 178 177 176 173 168 169 167 166 162 158 150 151 152 148 149 130 137 139 130 116 91 72 68 59 80 48 355 301 346 354 347 347 349 330 329 329 328 325 321 319
186 187 184 184 180 179 175 173 176 174 172 173 168 165 166 163 160 152 151 175 176 168 163 115 83 153 275 339 72 262 319 327 320 324 329 329 321 320 320 320 318 315 313
188 188 190 188 184 182 179 179 178 176 175 177 175 173 174 171 172 183 184 186 197 205 210 195 238 282 306 318 313 310 316 313 309 311 309 317 312 312 313 312 311 309 308
190 192 193 190 188 187 184 183 182 178 178 178 180 180 180 184 192 195 207 202 210 223 235 248 269 283 289 292 296 303 303 301 304 306 304 304 305 307 307 307 306 306 306
196 194 195 194 192 190 188 185 186 186 185 185 184 187 191 196 200 201 212 213 220 230 239 253 264 274 281 288 289 294 297 297 298 298 296 291 297 302 304 305 305 305 306
200 197 195 197 195 192 191 189 189 190 190 189 190 194 196 199 201 204 214 219 225 235 248 259 271 279 284 285 289 290 292 294 292 295 295 295 285 294 303 305 306 308 309
202 198 195 197 196 195 195 193 191 191 192 193 194 196 197 199 203 208 220 224 227 233 244 255 267 272 277 281 285 291 293 292 293 293 294 296 298 293 301 312 316 318 319
202 199 195 194 196 196 195 195 194 194 194 195 195 197 200 201 203 209 219 227 224 227 240 252 266 271 277 284 292 295 292 291 290 295 295 293 297 303 304 338 335 336 335
204 198 194 193 195 195 194 194 194 193 193 194 193 195 199 201 203 208 219 223 216 225 238 248 261 275 285 291 295 295 293 292 296 294 292 293 292 296 305 321 316 326 332
202 198 193 191 193 191 190 190 188 188 186 189 191 194 195 196 199 204 209 213 214 225 237 245 260 270 286 296 297 293 291 293 291 290 291 281 275 291 295 305 304 306 310
194 193 190 188 189 186 185 185 186 189 184 184 185 187 190 191 193 197 203 210 213 229 239 246 259 269 277 298 298 299 293 281 287 280 277 283 286 291 289 296 302 311 308
190 189 187 186 186 186 187 187 188 182 180 176 170 181 186 189 189 192 200 205 209 221 228 234 248 272 279 286 299 309 309 290 265 271 283 285 288 286 290 294 301 304 304
188 187 185 184 184 186 183 175 162 156 157 170 175 176 179 183 183 186 192 196 199 212 225 229 237 255 271 267 273 289 300 305 317 283 277 281 283 287 292 298 298 300 299
184 180 182 181 183 184 180 181 180 183 185 187 179 172 169 175 175 176 180 187 193 206 214 218 226 243 256 266 262 255 266 284 289 300 285 280 286 290 293 295 297 298 296
174 175 177 177 180 182 185 187 188 189 184 173 167 167 168 169 173 175 179 183 189 198 206 209 218 232 246 260 265 265 264 264 260 270 289 296 293 286 289 293 294 293 295
169 170 172 175 178 181 185 187 189 185 175 169 172 173 173 170 172 177 179 184 190 196 202 212 224 235 246 255 260 260 262 264 267 266 279 292 296 296 296 289 286 288 291
Height
1548 1549 1551 1553 1555 1556 1557 1558 1558 1559 1559 1559 1559 1559 1559 1558 1558 1557 1557 1557 1556 1556 1555 1555 1554 1553 1552 1552 1551 1550 1550 1550 1549 1549 1548 1548 1547 1546 1546 1546 1546 1545 1545
1548 1549 1551 1553 1555 1556 1558 1558 1559 1559 1560 1560 1560 1560 1560 1559 1559 1559 1558 1558 1557 1557 1556 1556 1555 1554 1553 1553 1552 1551 1551 1550 1550 1550 1549 1549 1548 1547 1546 1546 1546 1545 1544
1548 1550 1551 1553 1555 1557 1558 1559 1560 1560 1561 1561 1561 1561 1561 1560 1560 1560 1559 1559 1558 1557 1557 1556 1556 1555 1554 1554 1553 1552 1551 1551 1551 1551 1550 1550 1549 1548 1547 1547 1546 1545 1545
1548 1550 1552 1554 1556 1557 1558 1559 1560 1561 1561 1562 1562 1562 1561 1561 1561 1560 1560 1559 1559 1558 1558 1557 1556 1556 1555 1555 1554 1553 1552 1552 1552 1552 1552 1551 1550 1549 1548 1547 1547 1546 1545
1549 1551 1552 1554 1556 1558 1559 1560 1561 1561 1562 1562 1562 1562 1562 1562 1562 1561 1561 1560 1560 1559 1559 1558 1557 1557 1556 1556 1555 1554 1554 1553 1553 1553 1552 1552 1551 1550 1549 1548 1547 1547 1546
1549 1551 1552 1554 1556 1558 1559 1560 1561 1562 1563 1563 1563 1563 1563 1563 1563 1562 1562 1561 1561 1560 1560 1559 1558 1558 1557 1557 1556 1555 1555 1554 1554 1554 1553 1553 1552 1551 1550 1549 1548 1547 1546
1549 1551 1552 1554 1556 1558 1559 1560 1561 1562 1563 1564 1564 1564 1564 1564 1563 1563 1563 1562 1562 1561 1561 1560 1560 1559 1559 1558 1557 1556 1556 1555 1555 1554 1554 1553 1552 1552 1551 1550 1549 1548 1547
1550 1551 1552 1554 1556 1557 1559 1560 1561 1563 1563 1564 1565 1565 1565 1565 1564 1564 1564 1563 1563 1562 1562 1561 1561 1560 1560 1559 1558 1558 1557 1556 1556 1555 1554 1554 1553 1552 1551 1551 1550 1549 1548
1550 1551 1552 1554 1555 1557 1559 1560 1561 1563 1564 1564 1565 1565 1565 1565 1565 1565 1564 1564 1564 1563 1563 1562 1562 1561 1561 1560 1559 1558 1558 1557 1557 1556 1555 1554 1553 1552 1552 1551 1550 1549 1548
1549 1550 1552 1554 1555 1557 1558 1560 1561 1563 1564 1565 1565 1565 1565 1566 1566 1565 1565 1565 1564 1564 1564 1563 1563 1562 1561 1560 1560 1559 1558 1557 1557 1556 1555 1554 1553 1552 1551 1551 1550 1549 1548
1547 1549 1550 1552 1554 1556 1558 1559 1561 1562 1563 1564 1565 1565 1566 1566 1567 1566 1566 1565 1565 1565 1564 1564 1563 1562 1562 1561 1560 1559 1558 1558 1557 1556 1554 1553 1552 1551 1551 1550 1549 1548 1547
1544 1546 1548 1550 1552 1555 1557 1558 1560 1561 1563 1564 1565 1565 1566 1566 1567 1567 1566 1565 1565 1565 1564 1564 1563 1563 1562 1562 1561 1559 1559 1558 1556 1555 1554 1552 1551 1550 1549 1548 1547 1546 1546
1542 1543 1546 1548 1550 1553 1555 1557 1559 1560 1561 1563 1564 1564 1565 1566 1566 1566 1566 1566 1565 1565 1565 1564 1563 1563 1562 1561 1560 1559 1558 1557 1556 1554 1553 1550 1549 1548 1547 1546 1545 1544 1543
1539 1541 1543 1545 1548 1550 1552 1554 1556 1558 1560 1561 1562 1563 1564 1565 1565 1565 1565 1566 1565 1565 1564 1564 1563 1562 1561 1560 1559 1558 1557 1556 1554 1552 1551 1548 1547 1545 1544 1543 1542 1541 1540
1535 1538 1540 1542 1545 1547 1550 1552 1554 1556 1558 1559 1560 1562 1563 1564 1564 1564 1564 1564 1564 1564 1563 1563 1562 1562 1560 1559 1558 1557 1555 1554 1552 1550 1548 1546 1544 1543 1541 1540 1539 1538 1537
1532 1534 1536 1539 1541 1544 1547 1549 1551 1554 1556 1557 1559 1560 1561 1562 1563 1563 1563 1563 1563 1562 1562 1562 1561 1560 1559 1557 1556 1555 1553 1552 1550 1548 1546 1543 1541 1539 1538 1536 1535 1534 1533
1528 1530 1532 1535 1538 1541 1544 1546 1549 1551 1553 1555 1557 1558 1559 1560 1561 1561 1561 1561 1561 1561 1560 1560 1559 1558 1556 1555 1554 1552 1550 1548 1546 1545 1542 1540 1538 1536 1534 1533 1531 1530 1529
1523 1525 1528 1531 1534 1537 1540 1543 1546 1548 1550 1552 1554 1555 1557 1558 1559 1559 1559 1559 1559 1559 1558 1557 1557 1555 1554 1553 1551 1549 1547 1545 1543 1541 1539 1537 1535 1533 1531 1529 1528 1527 1525
1518 1521 1523 1526 1530 1533 1537 1540 1543 1545 1547 1549 1551 1553 1554 1555 1556 1557 1557 1557 1557 1556 1556 1555 1554 1553 1552 1550 1548 1546 1544 1542 1540 1537 1536 1534 1532 1530 1529 1527 1525 1524 1522
1513 1516 1519 1522 1525 1529 1533 1536 1539 1542 1544 1546 1548 1550 1551 1552 1553 1554 1554 1554 1554 1553 1553 1552 1551 1550 1549 1547 1545 1543 1540 1538 1536 1534 1532 1531 1529 1528 1526 1524 1523 1521 1518
1507 1510 1513 1517 1521 1524 1528 1531 1535 1538 1541 1543 1545 1547 1548 1549 1550 1551 1551 1551 1551 1551 1550 1549 1549 1547 1546 1544 1542 1540 1537 1535 1533 1531 1530 1529 1528 1526 1524 1522 1520 1517 1515
1502 1505 1508 1512 1516 1520 1523 1528 1531 1534 1537 1540 1542 1544 1545 1546 1547 1548 1548 1548 1548 1548 1547 1546 1546 1545 1543 1542 1540 1538 1536 1535 1531 1529 1528 1526 1525 1523 1521 1519 1516 1513 1511
1497 1500 1503 1507 1511 1516 1520 1524 1528 1531 1534 1536 1538 1540 1542 1543 1545 1545 1545 1545 1545 1545 1544 1543 1542 1542 1541 1539 1538 1538 1536 1533 1530 1527 1524 1523 1521 1519 1517 1515 1512 1509 1506
1494 1497 1500 1504 1508 1512 1515 1519 1523 1526 1529 1532 1535 1537 1539 1540 1541 1542 1542 1542 1542 1542 1541 1540 1539 1538 1537 1536 1535 1533 1533 1531 1529 1524 1522 1519 1517 1515 1512 1510 1507 1504 1501
1490 1493 1497 1500 1504 1508 1512 1515 1519 1523 1526 1529 1532 1534 1536 1537 1538 1538 1539 1539 1539 1538 1538 1537 1536 1535 1534 1533 1531 1530 1528 1527 1525 1523 1518 1515 1513 1510 1507 1504 1502 1499 1496
1487 1490 1494 1497 1501 1504 1508 1512 1516 1519 1522 1525 1528 1530 1532 1533 1534 1535 1535 1535 1535 1535 1534 1533 1532 1531 1530 1529 1527 1526 1524 1523 1521 1518 1514 1511 1508 1505 1502 1498 1496 1493 1490